Resultados

800 Electronico
Fecha Serie Viento Presión Humedad Temperatura
29-10-2017 Final_A
Puesto Andanivel Nombre Dia Mes Año Pais Marca
01 Jose Sanchez 5 8 1987 FCMAX - 1.58.57 -
02 Larroza Nahuel 18 5 1998 AAMTE - 1.58.70 -
03 Suarez Juan Cruz 27 12 1994 FCMAX - 1.58.96 -
04 Moyano Rodrigo Alejandro 24 8 2000 MDLDZ - 1.59.00 -
05 Ramirez Alexis 30 6 1996 EMACO ASCER 1.59.44 -
06 Pardo Daniel 4 9 1976 ECOTF ARDA 1.59.60 -
07 Xavier Racedo 21 12 1997 AAMTE - 2.00.78 -
08 Cenatiempo Mariano 20 12 1992 ALUMN ABAH 2.00.91 -
09 Villordo Federico 18 2 1996 ECOTF ARDA 2.01.31 -
10 Gauna Brian Miguel 15 2 1994 JMCOR FMARP 2.01.75 -
11 Salguero Fernando 10 5 1993 PGARI 2.01.77 -
12 Perez Fabian Enzo 28 12 1994 AAY 2.02.01 -
13 Holzmann Juan Pablo 2 2 1995 LCFAM - 2.02.72 -
14 Flores Paulo 1 4 2000 L�FA - 2.02.95 -
15 Degeneve Martin 27 12 1997 EMACO ASCER 2.03.01 -
16 Caamano Tomas 17 1 1992 SAVBF 2.03.36 -
17 Cardozo Francisco 15 5 1993 EMA 2.03.40 -
18 Arroyo Santiago 10 1 1998 UAJGR - 2.03.92 -
19 Gallego Martin Ezequiel 26 2 1996 PGARI - 2.04.64 -
20 Manfe Juan Manuel 26 11 1997 L�FA 2.05.10 -
21 Russo Tomas 26 3 1998 EMACO ASCER 2.05.48 -
22 Carrera Alan Gaston 8 7 1999 JMCOR FMARP 2.05.93 -
23 Niño Jorge Andres 11 2 1989 APLIS - 2.06.46 -
24 Rotundo Molteni Ignacio 3 11 1992 LCFAM - 2.07.04 -
25 Janus Alexis Jonathan 12 11 1993 JMCOR FMARP 2.07.64 -
26 Godoy Matias Emanuel 13 9 1996 AMAYA AAZUL 2.07.76
27 ESCOBAR HUGO NORBETO 6 6 1985 VYR ASA 2.08.81 -
28 Sandoval David 13 4 1983 LÑFA - 2.09.06 -
29 SISTERNA Juan 6 2 1999 AATAM AMA 2.09.47 -
30 Domecq Sebastian 8 10 1996 AAY - 2.09.87 -
31 Desposito Juan 23 10 2000 AAY - 2.10.07 -
33 Hidalgo Oscar 10 8 1984 CADAF - 2.11.53 -
34 Reyes Gabriel 28 6 1991 QUIRO 2.11.94 -
35 Pires Agustin 13 7 1998 EMACO ASCER 2.12.22 -
36 Nicolas Sales Sanchez 14 10 2000 EMAB - 2.14.08
37 Pallero Gonzalo Agustin 14 9 1996 LÑFA - 2.15.80 -
38 Martinez Matias 13 5 1975 EMA - 2.16.42 -
39 Garcia Mauro 25 8 1967 L�FA 2.16.78 -
40 Crego Franco Nahuel 17 11 1995 LCFAM - 2.16.91 -
41 Diaz Lautaro 2 9 1999 MUAVE - 2.17.08 -
42 Contreras Carlos 5 4 2000 CMDB1 - 2.17.51 -
43 Sergio Zaiontz 27 8 1973 VYR ASA 2.18.21 -
44 Darqui Elian 10 3 2000 LCFAM - 2.18.53 -
45 Jara Fernado Ezequiel 6 6 1990 EMCDC - 2.18.57 -
46 Ayala Dario Ezequiel 20 1 1996 CADAF - 2.19.01 -
47 Lema Lautaro Augusto 25 9 1990 MUAVE - 2.22.85 -
48 Mamone Lucas Fabian 28 10 1991 EBFAM 2.25.93 -
49 Pablo Kalhofer 17 4 1976 LÑFA - 2.26.30 -
50 Moreyra Sebastian Alejandro 10 2 2000 LCFAM - 2.27.84 -
51 Villarreal Matias Joaquin 18 12 1999 MUAVE - 2.28.21 -
99 Fairhurst Agosta Leonardo David 10 5 1993 CADAF - DNS
99 Gargallo Matias 22 12 1998 UA - DNS
99 Del Pino Mateo 1 4 2000 UA - DNS
99 Brian Alan Sasso 23 4 2000 MFV - DNS
99 CACERES PABLO DAVID 11 9 1995 EMA DNS
99 Painemilla Marcos 9 12 1992 EBFAM - DNS
99 Arnold Cornelis 18 11 1995 CADAF - DNS
99 Diaz Damian 13 4 1986 AAY - DNF
99 Orozco Sergio Osvaldo 11 1 1967 CADAF - DNS
99 Maresca Nicolas 17 1 1992 EMA - DNS
99 Juan Pablo Lorenzo 10 1 2000 UA - 2.11.06 FP